Погода в Хомутинке

Россия / Омская область     55°29′48″N   75°08′05″E
темп.,
°C
ветер,
м/с
пор.,
м/с
влажн.,
%
обл.,
%
осадки,
мм/ч
давл.,
гПа
погр.,
м
6 марта, сб
сб600:00−3юз81594100 0.5 1008814
03:00−4юз91595100 1.0 1006858
06:00−4юз91593100 2.3 1004928
09:00−1юз121991100 1.0 10001174
12:000зюз121888100 1.3 10011383
15:00−3зюз10148094 0.2 10041307
18:00−6зюз7148395 0.3 1008756
21:00−10зюз6148826 0.0 1010411
7 марта, вс
вс700:00−13зюз4109113 0.0 1012186
03:00−16зюз47930 0.0 101390
06:00−17юз48930 0.0 1015122
09:00−15юз5119122 0.0 1016219
12:00−11зюз589129 0.0 1018311
15:00−9юз359143 0.0 1018327
18:00−11ююв349258 0.0 101752
21:00−10юв5986100 0.0 1015259
8 марта, пн
пн800:00−6ююв81595100 1.0 1010636
03:00−1ююз91793100 1.1 1005740
06:000ю91690100 1.1 1002761
09:00−2ю101792100 0.3 999741
12:00−1юз111795100 1.9 10001148
15:00−7з91485100 0.4 1004899
18:00−8з81586100 1.5 1007853
21:00−10з71490100 0.1 1012679
9 марта, вт
вт900:00−12зюз61291100 0.1 1015487
03:00−16юз599465 0.0 1018194
06:00−18ююз479633 0.0 1019133
09:00−17ююз499365 0.0 1020224
12:00−12ююз6109060 0.0 1020351
15:00−10ю6109187 0.0 1018417
18:00−10ю6138991 0.0 1016437
21:00−12ю7138872 0.0 1014337
10 марта, ср
ср1000:00−13ююз6138970 0.0 1013335
03:00−14юз51091100 0.0 1012241
06:00−15юз4994100 0.0 1012151
09:00−13юз4795100 0.0 1012183
12:00−9юз3492100 0.0 1012252
15:00−7ююз1286100 0.0 1010258
18:00−7всв1195100 0.2 100834
21:00−8ссв1295100 0.1 100728